Theta_e
347 345 349 351 351 352 352 352 353 350 350 350 350 352 352 351 350 348 352 352 352 352 352 353 352 351 352 352 352 351 351 349 349 350 350 350 348 345 346 348 347 349 348
343 345 348 350 352 351 351 351 350 350 351 351 352 352 351 351 352 346 349 352 352 353 353 353 353 353 351 351 352 352 350 351 350 350 350 351 349 349 349 349 346 345 346
340 346 348 351 351 351 351 350 352 352 352 352 353 351 352 353 352 352 347 352 351 352 352 352 352 352 350 349 352 350 350 352 352 351 346 347 350 350 350 349 349 349 349
336 346 348 350 350 352 349 351 351 352 352 353 353 355 353 353 352 353 351 351 353 354 353 352 350 350 350 351 351 351 350 351 350 349 345 346 349 350 348 347 348 348 348
336 344 348 350 350 352 351 352 352 352 352 354 352 348 352 352 352 352 353 352 351 351 351 350 349 349 348 350 351 350 349 346 343 342 342 344 347 350 349 349 348 349 345
338 341 349 351 351 352 351 353 352 351 351 352 352 353 353 353 353 353 352 352 352 350 352 350 348 348 351 351 351 349 347 346 345 339 341 343 345 347 349 346 348 348 346
337 341 349 349 351 351 351 351 353 351 351 351 350 352 353 353 352 353 352 352 351 350 350 350 351 350 351 350 349 342 337 342 344 342 338 342 344 348 349 345 347 345 344
336 340 349 350 351 351 352 352 351 352 352 352 352 351 350 352 352 352 352 352 352 352 350 349 349 351 350 348 344 344 345 345 344 344 338 340 343 346 350 341 341 344 345
337 337 345 349 350 351 351 352 352 352 351 350 350 352 351 351 352 350 350 350 351 352 352 351 349 349 343 344 343 345 347 345 342 345 344 337 343 347 350 340 346 343 345
340 339 340 344 348 350 348 351 353 352 352 352 352 352 352 351 351 351 352 349 352 351 350 351 351 346 344 346 341 343 344 345 344 344 346 340 338 343 349 346 341 343 343
345 340 341 340 344 346 344 347 353 354 353 353 353 353 351 353 352 350 349 342 344 339 344 350 351 350 342 345 341 342 346 346 343 343 343 344 337 338 348 348 347 346 343
350 345 343 342 342 344 342 343 352 352 353 353 352 352 351 350 348 345 340 342 340 339 342 343 343 350 349 341 344 340 343 343 342 340 339 342 340 336 347 347 347 345 342
350 350 349 347 345 345 342 342 351 350 352 352 352 351 352 350 343 345 342 342 343 341 341 342 342 343 341 340 340 339 340 342 343 340 339 338 340 339 346 348 345 337 344
349 349 350 347 343 343 344 342 345 349 350 351 351 350 350 350 345 344 344 341 342 342 339 339 342 343 342 342 342 341 341 341 341 341 341 340 338 343 341 348 348 343 335
349 347 348 346 343 343 346 345 344 346 348 348 348 348 348 345 342 344 344 344 345 344 340 339 339 342 341 341 342 342 342 339 342 343 344 343 341 338 341 344 345 348 344
348 349 350 351 349 347 348 346 343 344 343 344 343 344 344 343 344 344 346 346 344 344 345 342 344 342 341 340 342 345 344 344 345 345 345 344 341 340 342 341 341 343 345
349 348 347 346 349 349 347 346 343 340 340 342 341 342 342 342 344 345 347 347 345 345 346 346 345 346 345 342 341 342 345 345 345 345 345 344 343 344 342 341 342 342 342
350 349 347 347 347 345 345 345 344 341 344 346 345 345 344 346 347 347 348 347 347 347 347 347 346 346 347 346 344 345 346 346 345 345 345 345 345 344 344 343 342 342 342
351 351 348 341 341 346 343 344 344 343 345 347 348 347 346 346 347 348 348 347 347 347 348 347 346 346 346 347 347 346 345 345 346 345 346 346 346 345 345 345 345 343 342
350 350 349 347 347 348 345 344 346 345 346 346 348 349 348 347 348 348 348 348 348 348 349 348 346 345 347 345 346 347 348 346 345 345 345 346 346 345 345 344 345 345 344
347 346 345 344 346 349 349 348 348 348 348 348 350 350 349 348 349 349 348 348 349 349 349 348 347 346 345 346 346 347 347 348 346 345 344 345 346 345 345 346 344 344 345
348 348 345 339 342 347 348 348 348 350 349 347 348 350 350 349 350 349 350 350 349 350 349 348 348 346 345 347 348 346 349 345 346 345 344 344 345 345 345 344 345 345 345
342 348 349 347 347 349 349 348 348 348 345 339 345 346 350 350 350 350 351 351 350 350 350 349 348 347 348 349 348 347 347 349 341 344 345 345 345 346 346 346 346 346 346
344 348 349 348 345 343 349 352 350 340 341 338 342 350 352 353 352 352 352 352 351 351 350 350 350 349 348 348 348 348 348 343 348 351 343 344 345 345 346 347 347 347 346
345 346 347 341 344 343 346 349 351 340 343 343 345 344 342 344 344 346 352 352 351 351 351 350 349 348 349 348 348 347 348 348 346 346 351 345 344 345 345 345 346 347 347
345 344 343 341 343 345 347 348 352 352 348 343 343 344 346 346 348 349 347 350 352 351 350 349 349 350 350 350 348 348 348 347 346 346 346 346 345 346 346 346 345 346 346
Wind_Speed
21 23 19 16 16 15 17 18 20 22 24 24 22 20 18 17 17 15 17 17 16 15 15 15 16 18 17 17 16 16 15 14 14 14 14 15 14 14 14 13 15 15 15
31 26 21 20 17 16 18 18 21 22 23 22 20 18 16 16 16 15 17 15 15 15 15 15 16 16 16 16 16 15 14 13 13 13 13 13 13 14 13 13 14 14 14
33 28 23 22 19 17 18 19 20 21 21 20 19 18 17 16 17 15 14 15 14 14 15 15 15 15 15 15 15 15 14 13 12 11 14 15 13 12 12 13 14 14 14
34 29 25 23 22 18 18 18 19 19 19 19 19 18 17 15 15 14 13 13 14 13 15 15 15 14 14 14 15 14 14 13 12 11 12 12 12 11 11 12 13 12 13
33 30 26 24 22 19 18 17 18 18 18 17 17 17 16 15 14 14 14 12 13 12 12 13 14 14 14 14 14 14 13 12 11 10 10 10 12 10 10 11 11 11 11
33 30 25 22 20 18 18 18 17 18 17 15 15 15 14 14 13 12 12 13 11 12 12 11 12 13 14 14 12 10 9 7 7 8 9 10 9 9 9 9 9 9 10
34 31 26 23 20 18 17 17 17 16 16 14 13 13 14 14 13 11 10 10 11 12 11 11 10 11 12 11 10 8 9 6 8 7 8 10 9 9 8 8 7 7 9
34 32 27 23 21 17 16 15 15 15 15 14 13 12 12 12 12 11 9 9 8 9 9 9 10 9 10 9 8 8 7 4 6 8 6 9 7 6 8 7 7 7 6
31 32 29 25 22 18 16 15 15 14 13 13 13 12 11 11 10 9 8 8 7 7 8 9 9 10 9 9 7 7 6 3 4 8 7 8 7 6 6 6 8 9 8
29 30 29 28 25 22 19 17 17 15 14 14 13 12 12 11 10 9 8 7 7 8 8 9 9 10 11 9 8 6 6 5 5 7 9 8 8 9 7 6 8 8 8
26 30 30 29 27 24 22 20 18 17 17 16 14 13 12 12 12 9 10 10 9 9 11 11 10 10 11 11 10 8 7 10 9 8 9 10 11 10 10 10 10 10 10
26 30 31 31 29 26 24 23 21 20 19 19 17 16 15 14 14 15 13 13 11 10 13 12 13 13 12 13 14 11 13 13 14 14 12 11 14 13 12 12 13 12 12
25 24 30 31 29 27 27 26 24 23 22 22 21 20 18 15 15 16 15 15 14 12 12 15 14 15 16 15 15 14 16 16 15 16 16 15 14 15 15 15 14 13 13
29 29 27 31 30 30 28 28 27 25 25 24 23 21 20 20 18 17 17 16 17 14 14 16 15 15 16 15 14 15 16 16 18 16 16 17 18 17 19 19 18 15 14
29 32 31 31 31 31 30 28 27 27 26 25 23 23 22 21 19 18 18 17 16 14 12 14 16 16 15 14 15 15 15 15 16 16 17 17 20 19 19 19 21 19 17
20 15 16 24 29 31 32 31 28 29 27 25 23 23 23 22 21 19 18 16 17 15 14 13 11 14 16 15 15 15 15 15 16 17 19 19 19 19 21 21 20 22 21
24 20 20 23 26 30 32 33 30 29 29 26 24 23 22 22 22 22 20 19 18 18 15 14 15 14 13 15 17 17 18 19 18 17 15 17 18 19 18 20 22 22 23
25 25 16 29 28 32 34 34 33 30 29 27 25 24 24 23 23 23 23 22 17 14 14 13 14 14 16 15 17 17 17 19 19 18 17 18 19 20 22 22 18 20 24
29 26 30 26 23 30 32 34 34 30 30 29 29 28 26 25 23 24 24 23 22 16 15 14 13 14 15 15 19 19 19 19 20 20 19 19 21 21 22 23 24 19 20
28 28 27 27 23 26 28 32 32 28 30 31 30 30 29 26 23 23 22 23 21 19 17 17 17 15 15 15 14 17 18 20 21 23 23 21 21 22 21 20 20 23 24
26 22 20 23 25 26 27 29 29 30 31 32 25 29 29 28 26 24 25 23 23 23 20 19 18 18 17 17 12 12 17 21 21 24 24 24 23 24 24 21 23 22 23
23 26 20 18 17 24 24 26 18 13 10 20 25 25 24 29 28 27 26 26 25 24 23 21 21 19 19 15 8 5 2 4 15 24 26 27 27 25 26 24 24 25 25
21 19 19 19 14 17 20 23 24 15 14 20 18 25 28 27 28 30 29 28 28 26 26 25 24 23 20 13 19 6 1 3 3 5 16 26 29 28 28 27 26 24 26
22 15 12 11 10 9 6 12 13 8 19 20 30 35 28 23 26 26 30 30 29 29 29 25 24 23 24 18 13 23 18 4 2 3 4 7 12 22 29 28 27 27 26
18 18 16 8 11 7 9 9 9 12 20 28 27 24 24 24 23 22 26 28 31 29 28 25 22 22 23 23 20 12 20 20 15 5 4 5 6 10 14 22 29 31 30
12 13 16 7 9 8 12 8 8 3 7 6 10 16 19 21 21 18 19 22 28 27 25 24 20 20 19 21 21 23 16 6 8 8 6 8 8 13 13 15 19 25 31
Wind_Direction
166 158 154 143 137 129 126 128 130 130 129 128 127 126 123 116 115 119 119 118 115 114 115 111 109 113 116 115 112 111 109 105 104 104 101 101 101 98 97 104 110 105 108
158 157 156 145 142 135 135 132 133 135 133 131 126 121 119 119 121 116 117 119 122 117 115 112 114 116 117 117 116 115 115 111 107 104 105 100 102 105 106 106 105 109 107
157 157 158 147 148 139 140 135 137 138 138 133 127 122 123 121 122 119 119 118 118 122 121 121 119 119 119 125 122 117 113 117 116 115 115 108 102 108 111 111 112 112 111
157 158 159 152 150 144 143 142 141 142 142 136 132 129 127 121 121 123 126 133 130 129 128 124 127 129 129 132 126 120 116 114 120 126 115 113 112 113 115 111 110 111 110
159 161 159 155 152 151 150 147 148 147 148 146 140 136 134 133 132 133 134 138 136 136 132 133 133 135 137 139 138 130 122 120 124 123 118 116 112 110 104 104 106 109 108
162 163 159 159 156 155 153 153 155 155 156 151 146 141 142 141 138 139 138 144 144 142 143 135 134 140 144 147 144 145 144 144 132 130 129 127 124 116 112 108 106 111 109
165 166 163 164 162 161 160 159 158 161 163 162 158 155 155 150 148 150 146 151 151 153 151 146 144 147 155 155 150 149 142 120 159 146 137 138 127 124 119 116 113 114 117
169 171 169 171 169 168 168 169 167 168 169 169 165 168 167 161 160 158 157 157 164 161 159 158 157 165 170 170 159 149 151 135 162 170 151 150 144 145 144 133 135 134 128
175 177 179 181 181 184 183 180 178 181 179 177 179 180 179 174 174 170 172 177 184 186 181 178 176 181 188 184 178 166 167 163 165 180 179 178 153 161 174 167 163 158 154
183 187 189 190 193 196 196 195 189 189 191 193 193 195 194 191 194 190 201 205 214 210 208 200 201 200 198 192 187 191 190 199 182 188 198 199 195 186 194 192 181 177 168
192 196 198 199 200 202 203 200 198 197 199 205 206 208 209 209 202 210 224 228 229 239 231 218 217 218 212 208 204 213 226 224 220 214 219 219 212 205 204 202 199 199 195
197 203 204 205 204 204 204 203 205 204 208 213 215 215 221 222 223 218 231 235 229 253 250 238 226 221 226 225 227 234 241 243 237 231 231 231 227 220 214 212 211 215 217
201 205 208 208 208 206 205 207 208 214 216 220 221 221 223 230 236 234 239 239 251 270 246 239 238 233 229 231 239 242 244 247 242 237 237 236 231 226 222 222 217 217 219
204 208 209 211 209 212 213 214 215 220 223 226 227 229 228 232 235 239 243 248 252 280 258 237 242 241 243 241 247 245 246 245 242 243 244 243 236 234 232 226 227 225 222
208 211 212 214 214 216 218 223 225 227 230 232 233 233 235 237 243 244 249 252 257 265 248 239 242 242 244 247 251 251 249 243 238 242 249 250 244 236 239 241 229 229 228
208 214 221 227 223 223 225 225 230 234 236 237 239 238 238 243 246 247 251 255 254 256 247 237 243 242 245 246 250 248 245 246 252 255 257 249 242 235 236 240 241 234 233
208 201 219 239 231 233 232 234 232 239 240 240 243 241 239 241 248 249 251 255 255 252 251 238 242 246 247 242 250 247 251 249 253 257 256 246 241 238 240 244 247 245 239
199 201 195 224 231 233 233 238 238 241 245 246 247 247 245 244 247 252 252 252 262 255 252 240 247 252 252 243 247 250 253 249 253 253 255 250 252 253 249 243 249 246 243
209 207 207 220 225 230 234 240 243 244 248 252 253 251 250 249 253 253 254 252 249 253 255 250 250 252 256 259 255 261 255 253 249 250 254 252 256 255 258 255 244 242 243
214 223 221 225 226 230 235 241 246 249 253 255 257 254 250 250 253 254 255 256 257 255 251 247 246 249 249 255 261 262 263 258 253 250 251 256 257 253 260 255 249 244 243
205 209 219 229 230 228 232 234 241 247 258 261 258 257 253 251 253 257 257 259 254 255 253 249 246 245 251 252 257 271 265 258 253 247 247 250 253 256 258 258 249 252 252
230 226 228 235 241 235 240 243 242 280 287 323 305 276 263 259 261 255 256 255 254 250 248 244 239 240 249 246 219 231 293 284 247 245 245 248 253 254 253 252 253 251 253
228 234 246 246 256 256 264 263 256 267 336 4 331 291 281 274 269 264 259 253 252 248 246 247 241 236 239 241 222 207 187 241 318 259 249 250 251 251 249 251 251 250 249
227 224 235 239 234 249 245 249 256 268 249 246 271 290 294 288 281 274 262 256 251 249 247 248 247 247 242 235 232 230 237 228 206 311 283 264 259 252 247 248 251 253 254
221 219 215 241 245 264 222 257 236 224 255 254 274 295 308 304 290 279 268 258 250 245 245 246 250 252 249 245 232 213 230 238 245 230 282 287 279 273 266 256 251 255 255
185 206 210 224 225 220 212 269 278 214 214 282 331 333 335 332 324 304 275 262 253 243 244 246 251 250 249 259 257 241 221 190 208 205 233 261 262 284 279 269 257 254 257